Location: Unspecified
(43.4354°N, 0.0000°E)
Time: 13:36:47
(UTC+00:00)

A-11 Canister half - Pass Details

Date: 26 June 2019
Orbit: 1514 x 1686 km, 47.2° (Epoch: 19 August)

Event Time Altitude Azimuth Distance (km) Brightness Sun altitude
Rises 16:10:33 0° 295° (WNW) 4,801 12.4 35.9°
Reaches altitude 10° 16:13:52 10° 289° (WNW) 3,789 12.3 35.3°
Maximum altitude 16:22:39 43° 223° (SW) 2,061 10.7 33.7°
Drops below altitude 10° 16:31:11 10° 155° (SSE) 3,676 10.8 32.2°
Sets 16:34:22 0° 149° (SSE) 4,647 11.2 31.6°
